FW7740 Weather Reports


Display with metric or nautical units.
time (UTC)temp
F
wind
direction
speed
MPH
gust
MPH
rain 1hr
in
rain 24hr
in
rain mn
in
humidity
%
barometer
mb
20260505173605 51 344 4.0 5.0 0.00 0.05 0.05 81 1011.8
20260505173102 52 337 2.0 2.0 0.00 0.05 0.05 82 1011.8
20260505172559 52 331 2.0 2.0 0.00 0.05 0.05 83 1011.8
20260505172056 52 306 5.0 7.0 0.00 0.05 0.05 82 1011.4
20260505171550 53 346 4.0 7.0 0.00 0.05 0.05 83 1011.1
20260505171048 53 351 2.0 2.0 0.00 0.05 0.05 83 1011.4
20260505170544 53 308 1.0 1.0 0.00 0.05 0.05 82 1010.8
20260505170041 53 343 3.0 3.0 0.00 0.05 0.05 84 1010.8
20260505165536 53 340 3.0 5.0 0.00 0.05 0.05 84 1011.1
20260505165032 53 0 3.0 5.0 0.00 0.05 0.05 83 1011.1
20260505164528 53 307 5.0 6.0 0.00 0.05 0.05 84 1011.1
20260505164026 52 316 1.0 1.0 0.00 0.05 0.05 85 1011.1
20260505163525 52 318 1.0 2.0 0.00 0.05 0.05 85 1011.1
20260505163021 52 353 3.0 3.0 0.14 0.05 0.05 84 1011.4
20260505162515 52 330 5.0 6.0 0.31 0.05 0.05 82 1011.4
20260505162012 53 332 3.0 2.0 0.17 0.03 0.03 81 1011.8
20260505161509 53 351 2.0 2.0 0.00 0.00 0.00 78 1011.8
20260505161006 53 347 1.0 1.0 0.00 0.00 0.00 75 1012.5
20260505160504 53 336 0.0 0.0 0.00 0.00 0.00 75 1012.1
20260505152939 54 345 3.0 3.0 0.00 0.00 0.00 73 1011.1
20260505152438 54 345 6.0 7.0 0.00 0.00 0.00 72 1011.1
20260505151937 55 355 4.0 5.0 0.00 0.00 0.00 71 1010.8
20260505151433 54 129 3.0 3.0 0.00 0.00 0.00 72 1010.8
20260505150931 55 59 5.0 7.0 0.00 0.00 0.00 70 1010.8
20260505150427 54 230 3.0 3.0 0.00 0.00 0.00 71 1010.4
20260505140357 53 60 3.0 3.0 0.00 0.00 0.00 76 1010.8
20260505124811 52 343 3.0 3.0 0.00 0.00 0.00 79 1009.6
20260505124308 52 344 7.0 9.0 0.00 0.00 0.00 78 1009.6
20260505123804 52 149 4.0 7.0 0.00 0.00 0.00 78 1009.6
20260505123301 53 327 3.0 5.0 0.00 0.00 0.00 78 1009.3
20260505122757 53 350 2.0 2.0 0.00 0.00 0.00 78 1009.3
20260505122255 53 8 3.0 5.0 0.00 0.00 0.00 77 1009.3
20260505121751 53 92 4.0 6.0 0.00 0.00 0.00 76 1009.3
20260505121247 53 20 6.0 7.0 0.00 0.00 0.00 75 1009.3
20260505120744 53 317 4.0 5.0 0.00 0.00 0.00 76 1009.6
20260505120240 53 340 2.0 3.0 0.00 0.00 0.00 76 1009.3
20260505115739 53 323 6.0 7.0 0.00 0.00 0.00 76 1009.3
20260505115236 53 353 5.0 6.0 0.00 0.00 0.00 76 1009.3
20260505114734 53 352 1.0 2.0 0.00 0.00 0.00 76 1009.6
20260505114230 53 297 3.0 3.0 0.00 0.00 0.00 76 1009.6
20260505113726 53 348 3.0 3.0 0.00 0.00 0.00 77 1009.3
20260505113223 53 353 3.0 3.0 0.00 0.00 0.00 76 1008.6
20260505112719 53 305 1.0 2.0 0.00 0.00 0.00 77 1008.6
20260505112217 53 354 1.0 1.0 0.00 0.00 0.00 76 1008.6
20260505111717 53 336 0.0 0.0 0.00 0.00 0.00 76 1009.0
20260505111213 53 340 1.0 1.0 0.00 0.00 0.00 76 1009.0
20260505110709 53 291 3.0 2.0 0.00 0.00 0.00 76 1009.0
20260505110207 53 332 7.0 8.0 0.00 0.00 0.00 76 1009.0
20260505102142 56 303 5.0 10.0 0.00 0.00 0.00 75 1009.3
20260505101641 57 349 9.0 10.0 0.00 0.00 0.00 74 1009.3
20260505101137 58 333 10.0 13.0 0.00 0.00 0.00 73 1009.0
20260505100633 61 347 5.0 8.0 0.00 0.00 0.00 69 1009.0
20260505100130 64 47 5.0 6.0 0.00 0.00 0.00 67 1008.6
20260505095626 65 4 7.0 9.0 0.00 0.00 0.00 69 1008.3
20260505095123 66 307 2.0 2.0 0.00 0.00 0.00 71 1008.0
20260505094619 66 18 1.0 1.0 0.00 0.00 0.00 72 1008.0
20260505094116 65 7 5.0 6.0 0.00 0.00 0.00 74 1007.6
20260505093612 65 352 0.0 0.0 0.00 0.00 0.00 74 1007.3
20260505093109 64 353 0.0 0.0 0.00 0.00 0.00 76 1007.3
20260505092607 63 352 0.0 0.0 0.00 0.00 0.00 78 1007.3
20260505092106 63 353 0.0 0.0 0.00 0.00 0.00 78 1006.9
20260505091602 64 353 0.0 0.0 0.00 0.00 0.00 78 1006.3
20260505091100 64 353 0.0 0.0 0.00 0.00 0.00 77 1005.9
20260505090557 64 353 0.0 0.0 0.00 0.00 0.00 76 1005.5
20260505090055 64 353 0.0 0.0 0.00 0.00 0.00 76 1005.5
20260505085553 64 353 0.0 0.0 0.00 0.00 0.00 76 1005.5
20260505085051 63 353 0.0 0.0 0.00 0.00 0.00 76 1005.5
20260505084549 63 83 0.0 0.0 0.00 0.00 0.00 78 1005.1
20260505084047 62 272 0.0 0.0 0.00 0.00 0.00 81 1004.8
20260505083543 62 272 0.0 0.0 0.00 0.00 0.00 82 1005.1
20260505083040 62 272 0.0 0.0 0.00 0.00 0.00 83 1005.1
20260505082536 62 272 0.0 0.0 0.00 0.00 0.00 83 1005.5
20260505082033 62 272 0.0 0.0 0.00 0.00 0.00 83 1005.5
20260505081529 61 272 0.0 0.0 0.00 0.00 0.00 83 1005.5
20260505081026 61 272 0.0 0.0 0.00 0.00 0.00 83 1005.5
20260505080522 61 272 0.0 0.0 0.00 0.00 0.00 83 1005.9
20260505080019 62 272 0.0 0.0 0.00 0.00 0.00 83 1005.5
20260505075515 62 272 0.0 0.0 0.00 0.00 0.00 83 1005.9
20260505075012 62 272 0.0 0.0 0.00 0.00 0.00 82 1005.9
20260505074510 62 272 0.0 0.0 0.00 0.00 0.00 83 1006.3
20260505074007 62 272 0.0 0.0 0.00 0.00 0.00 83 1006.3
20260505073504 62 272 0.0 0.0 0.00 0.00 0.00 82 1006.3
20260505073002 62 272 0.0 0.0 0.00 0.00 0.00 82 1006.3
20260505072457 62 272 0.0 0.0 0.00 0.00 0.00 81 1006.6
20260505071953 62 272 0.0 0.0 0.00 0.00 0.00 81 1006.6
20260505071449 62 272 0.0 0.0 0.00 0.00 0.00 80 1006.9
20260505070948 62 272 0.0 0.0 0.00 0.00 0.00 81 1006.6
20260505070444 62 273 0.0 0.0 0.00 0.00 0.00 81 1006.9
20260505065940 62 273 0.0 0.0 0.00 0.00 0.00 81 1006.9
20260505065437 62 273 0.0 0.0 0.00 0.00 0.00 81 1007.3
20260505064933 62 273 0.0 0.0 0.00 0.00 0.00 81 1006.9
20260505064430 62 273 0.0 0.0 0.00 0.00 0.00 81 1006.9
20260505063929 62 273 0.0 0.0 0.00 0.00 0.00 79 1006.9
20260505063425 62 273 0.0 0.0 0.00 0.00 0.00 78 1006.9
20260505062921 62 273 0.0 0.0 0.00 0.00 0.00 78 1006.6
20260505062419 63 273 0.0 0.0 0.00 0.00 0.00 77 1006.3
20260505061915 62 273 0.0 0.0 0.00 0.00 0.00 78 1006.3
20260505061414 62 273 0.0 0.0 0.00 0.00 0.00 77 1006.3
20260505060911 62 273 0.0 0.0 0.00 0.00 0.00 79 1006.3
20260505060408 61 273 0.0 0.0 0.00 0.00 0.00 80 1005.9
20260505055904 61 273 0.0 0.0 0.00 0.00 0.00 82 1005.9
20260505055400 60 273 0.0 0.0 0.00 0.00 0.00 83 1005.9
20260505054857 60 273 0.0 0.0 0.00 0.00 0.00 83 1005.9
20260505054354 60 273 0.0 0.0 0.00 0.00 0.00 83 1006.3
20260505053852 60 273 0.0 0.0 0.00 0.00 0.00 84 1006.6
20260505053349 60 273 0.0 0.0 0.00 0.00 0.00 83 1006.3
20260505052846 61 273 0.0 0.0 0.00 0.00 0.00 83 1006.3
20260505052343 61 273 0.0 0.0 0.00 0.00 0.00 81 1005.9
20260505051840 62 273 0.0 0.0 0.00 0.00 0.00 80 1006.3
20260505051337 62 273 0.0 0.0 0.00 0.00 0.00 79 1006.3
20260505050835 62 273 0.0 0.0 0.00 0.00 0.00 79 1006.6
20260505050334 62 273 0.0 0.0 0.00 0.00 0.00 78 1006.6
20260505041300 68 273 1.0 1.0 0.00 0.00 0.00 64 1006.9
20260505040758 69 273 0.0 0.0 0.00 0.00 0.00 63 1006.9
20260505040255 69 272 0.0 0.0 0.00 0.00 0.00 63 1006.9
20260505035752 70 276 1.0 2.0 0.00 0.00 0.00 62 1006.6
20260505035247 70 300 0.0 0.0 0.00 0.00 0.00 59 1006.9
20260505034745 70 332 0.0 0.0 0.00 0.00 0.00 59 1006.6
20260505034241 70 323 1.0 1.0 0.00 0.00 0.00 58 1006.9
20260505033738 70 323 0.0 0.0 0.00 0.00 0.00 58 1006.9
20260505033236 70 334 1.0 1.0 0.00 0.00 0.00 60 1006.9
20260505032734 70 328 0.0 0.0 0.00 0.00 0.00 60 1006.9
20260505032229 69 295 1.0 1.0 0.00 0.00 0.00 59 1006.9
20260505031727 68 22 1.0 2.0 0.00 0.00 0.00 63 1006.6
20260505031223 67 330 0.0 0.0 0.00 0.00 0.00 66 1006.9
20260505030720 67 307 0.0 0.0 0.00 0.00 0.00 71 1006.9
20260505030216 67 307 0.0 0.0 0.00 0.00 0.00 72 1006.9
20260505025712 67 310 0.0 0.0 0.00 0.00 0.00 71 1006.9
20260505025211 67 310 0.0 0.0 0.00 0.00 0.00 71 1006.9
20260505024708 67 310 0.0 0.0 0.00 0.00 0.00 71 1006.9
20260505024205 67 310 0.0 0.0 0.00 0.00 0.00 71 1006.6
20260505023703 67 310 0.0 0.0 0.00 0.00 0.00 71 1006.9
20260505023200 67 310 0.0 0.0 0.00 0.00 0.00 70 1006.6
20260505022658 67 310 0.0 0.0 0.00 0.00 0.00 70 1006.3
20260505022154 67 310 0.0 0.0 0.00 0.00 0.00 70 1006.3
20260505021651 67 310 0.0 0.0 0.00 0.00 0.00 70 1006.3
20260505021148 67 310 0.0 0.0 0.00 0.00 0.00 70 1006.3
20260505020643 67 310 0.0 0.0 0.00 0.00 0.00 70 1006.3
20260505020139 67 310 0.0 0.0 0.00 0.00 0.00 69 1005.9
20260505015637 68 310 0.0 0.0 0.00 0.00 0.00 68 1005.9
20260505015133 68 310 0.0 0.0 0.00 0.00 0.00 67 1005.5
20260505014630 68 310 0.0 0.0 0.00 0.00 0.00 66 1005.9
20260505014127 68 310 0.0 0.0 0.00 0.00 0.00 67 1005.5
20260505013625 69 313 0.0 0.0 0.00 0.00 0.00 66 1005.1
20260505013121 69 321 0.0 0.0 0.00 0.00 0.00 65 1005.5
20260505012615 69 321 0.0 0.0 0.00 0.00 0.00 64 1005.5
20260505012111 70 321 0.0 0.0 0.00 0.00 0.00 62 1005.5
20260505011607 71 321 0.0 0.0 0.00 0.00 0.00 62 1005.1
20260505011104 71 321 0.0 0.0 0.00 0.00 0.00 61 1005.5
20260505010559 72 321 0.0 0.0 0.00 0.00 0.00 57 1005.1
20260505010056 73 322 0.0 0.0 0.00 0.00 0.00 56 1005.1
20260505005552 74 322 0.0 0.0 0.00 0.00 0.00 53 1004.8
20260505005050 74 322 0.0 0.0 0.00 0.00 0.00 52 1004.8
20260505004546 75 322 0.0 0.0 0.00 0.00 0.00 50 1004.8
20260505004043 76 325 0.0 0.0 0.00 0.00 0.00 50 1004.8
20260505003541 76 347 0.0 1.0 0.00 0.00 0.00 48 1004.8
20260505003038 76 305 0.0 0.0 0.00 0.00 0.00 49 1004.8
20260505002537 77 303 0.0 0.0 0.00 0.00 0.00 49 1004.8
20260505002032 77 86 5.0 6.0 0.00 0.00 0.00 46 1004.8
20260505001529 77 282 0.0 0.0 0.00 0.00 0.00 47 1004.8
20260505001026 77 290 0.0 0.0 0.00 0.00 0.00 47 1005.1
20260505000523 78 297 0.0 0.0 0.00 0.00 0.00 46 1005.1
20260505000021 78 304 0.0 1.0 0.00 0.00 0.00 45 1004.8
20260504235517 78 284 0.0 0.0 0.00 0.00 0.00 45 1005.1
20260504235014 79 277 0.0 0.0 0.00 0.00 0.00 44 1004.8
20260504234511 79 277 0.0 0.0 0.00 0.00 0.00 45 1005.1
20260504234008 79 318 1.0 1.0 0.00 0.00 0.00 44 1005.5
20260504233503 79 299 1.0 1.0 0.00 0.00 0.00 45 1004.8
20260504233000 79 24 0.0 1.0 0.00 0.00 0.00 43 1005.1
20260504232457 79 301 0.0 0.0 0.00 0.00 0.00 44 1005.1
20260504231954 79 288 0.0 0.0 0.00 0.00 0.00 44 1005.1
20260504231450 79 306 0.0 0.0 0.00 0.00 0.00 43 1005.1
20260504230947 80 248 2.0 2.0 0.00 0.00 0.00 43 1005.1
20260504230444 80 288 1.0 1.0 0.00 0.00 0.00 42 1005.5
20260504225943 80 247 0.0 1.0 0.00 0.00 0.00 42 1005.1
20260504225439 80 152 3.0 3.0 0.00 0.00 0.00 42 1005.5
20260504224936 80 244 2.0 2.0 0.00 0.00 0.00 42 1005.1
20260504224433 80 21 1.0 1.0 0.00 0.00 0.00 42 1005.1
20260504223930 80 184 3.0 3.0 0.00 0.00 0.00 42 1005.5
20260504223426 80 249 2.0 3.0 0.00 0.00 0.00 41 1005.5
20260504222922 80 281 1.0 1.0 0.00 0.00 0.00 41 1005.5
20260504222420 81 270 1.0 1.0 0.00 0.00 0.00 41 1005.5
20260504221917 81 175 2.0 5.0 0.00 0.00 0.00 40 1005.1
20260504221414 81 248 1.0 1.0 0.00 0.00 0.00 40 1005.5
20260504220911 81 164 2.0 2.0 0.00 0.00 0.00 40 1005.1
20260504220408 81 286 0.0 1.0 0.00 0.00 0.00 39 1005.5
20260504215905 82 235 2.0 3.0 0.00 0.00 0.00 40 1005.5
20260504215401 82 267 2.0 3.0 0.00 0.00 0.00 38 1005.5
20260504214857 82 162 4.0 6.0 0.00 0.00 0.00 37 1005.1
20260504214354 82 277 3.0 3.0 0.00 0.00 0.00 38 1005.5
20260504213851 82 183 3.0 3.0 0.00 0.00 0.00 37 1005.9
20260504213347 83 154 2.0 3.0 0.00 0.00 0.00 37 1005.5
20260504212844 83 153 4.0 6.0 0.00 0.00 0.00 36 1005.5
20260504212340 83 154 3.0 3.0 0.00 0.00 0.00 37 1005.5
20260504211838 83 141 5.0 7.0 0.00 0.00 0.00 37 1005.5
20260504211334 83 262 2.0 2.0 0.00 0.00 0.00 38 1005.5
20260504210832 83 178 7.0 10.0 0.00 0.00 0.00 36 1005.9
20260504210329 83 163 4.0 5.0 0.00 0.00 0.00 37 1005.5
20260504205826 83 169 5.0 6.0 0.00 0.00 0.00 36 1005.9
20260504205323 83 27 2.0 2.0 0.00 0.00 0.00 37 1005.5
20260504204821 84 188 3.0 3.0 0.00 0.00 0.00 36 1005.9
20260504204320 84 243 5.0 7.0 0.00 0.00 0.00 36 1005.9
20260504203819 84 189 5.0 6.0 0.00 0.00 0.00 37 1005.9
20260504203315 83 300 1.0 1.0 0.00 0.00 0.00 36 1006.3
20260504202810 83 175 2.0 3.0 0.00 0.00 0.00 36 1006.3
20260504202308 84 136 3.0 7.0 0.00 0.00 0.00 36 1006.3
20260504201805 84 34 2.0 3.0 0.00 0.00 0.00 35 1006.3
20260504201302 84 165 5.0 7.0 0.00 0.00 0.00 36 1005.9
20260504200800 84 224 2.0 2.0 0.00 0.00 0.00 37 1005.9
20260504200256 83 193 3.0 6.0 0.00 0.00 0.00 36 1006.3
20260504195752 83 239 3.0 5.0 0.00 0.00 0.00 37 1006.3
20260504195248 83 297 4.0 6.0 0.00 0.00 0.00 36 1006.6
20260504194745 83 109 2.0 3.0 0.00 0.00 0.00 38 1005.9
20260504194241 84 233 1.0 2.0 0.00 0.00 0.00 36 1006.3
20260504193738 83 148 6.0 10.0 0.00 0.00 0.00 37 1006.3
20260504193235 84 155 3.0 6.0 0.00 0.00 0.00 36 1006.3
20260504192733 84 268 1.0 1.0 0.00 0.00 0.00 40 1006.3
20260504192231 84 209 10.0 13.0 0.00 0.00 0.00 36 1006.6
20260504191730 83 169 3.0 3.0 0.00 0.00 0.00 38 1006.6
20260504191226 82 177 6.0 9.0 0.00 0.00 0.00 39 1006.3
20260504190721 81 219 2.0 3.0 0.00 0.00 0.00 39 1006.6
20260504190218 82 182 6.0 7.0 0.00 0.00 0.00 39 1006.6
20260504185715 82 206 2.0 3.0 0.00 0.00 0.00 39 1006.9
20260504185212 82 177 4.0 5.0 0.00 0.00 0.00 41 1006.9
20260504184708 83 214 3.0 3.0 0.00 0.00 0.00 39 1006.9
20260504184203 83 345 0.0 0.0 0.00 0.00 0.00 38 1006.9
20260504183700 83 354 1.0 1.0 0.00 0.00 0.00 38 1006.9
20260504183157 82 265 0.0 1.0 0.00 0.00 0.00 40 1006.9
20260504182655 81 202 2.0 2.0 0.00 0.00 0.00 40 1007.3
20260504182152 80 242 2.0 2.0 0.00 0.00 0.00 41 1006.9
20260504181649 80 302 1.0 1.0 0.00 0.00 0.00 41 1007.3
20260504181147 81 202 7.0 10.0 0.00 0.00 0.00 40 1007.6
20260504180646 80 113 2.0 2.0 0.00 0.00 0.00 40 1007.3
20260504180144 80 174 4.0 3.0 0.00 0.00 0.00 40 1007.3
20260504175641 81 269 1.0 1.0 0.00 0.00 0.00 39 1007.3
20260504175137 82 216 3.0 2.0 0.00 0.00 0.00 38 1007.3
20260504174636 82 185 7.0 10.0 0.00 0.00 0.00 36 1007.6
20260504174132 83 159 5.0 8.0 0.00 0.00 0.00 38 1007.3